STARLINK-32268, 60372

Orbit data source: Space-Track

STARLINK-32268, 60372 is a payload satellite owned by SpaceX/Seattle (US) in LEO that was launched on Sun, 04 Aug 2024 UTC via an FALCON 9 launch vehicle from the Air Force Western Test Range (AFWTR). Payload-class satellites include a variety of spacecraft equipped with specific instruments for various scientific and technological missions. These include communications satellites like Starlink; space stations such as the ISS; scientific satellites like the Hubble; Earth observation satellites from companies like Planet Labs, Umbra, and HawkEye 360; GPS; miniature CubeSats for education and research; and military/defense satellites.

Loading next visibility...
Identifier
60372, 2024-138T
Orbit
LEO
Country
Flag of USUS
Related business
Manufacturer
SpaceX/Seattle
Mission
Operational Commercial Communications
Bus & Motor
STARLINK V2M, Unknown motor
Mass
730 kg wet, ~700 kg dry
Launch date (UTC)
2024-08-04 (1 year ago)
Launch vehicle
FALCON 9
Launch site
Air Force Western Test Range (AFWTR)
Object type
Payload
Rocket body
Debris
Shape & HBR
Box + 2 Pan, 17.7 m
Radar Cross Section
33.884 m², Large (>1 m²)

Expand to show TLE details & history
Last TLE update: 9 hours ago

TLE from 9 hours ago
0 STARLINK-32268
1 60372U 24138T   25353.94161488  .00002559  00000-0  98436-4 0  9990
2 60372  53.1626 320.3191 0001056 267.5973  92.4907 15.30215503 78419
Epoch: 2025-12-19T22:35Z
TLE epoch observation values (Epoch: 2025-12-19T22:35:55.525Z)
Latitude
-0.00002°
Longitude
-107.43781°
Altitude
476.1 km
Speed
7.629 km/s
True Right ascension
21h 21m 16s
True Declination
0° 00' 00"
Sunlit
Object was in daylight at epoch
Visualization orbit readout
Latitude
Unknown
Longitude
Unknown
Altitude
Unknown
Speed
Unknown
Apparent Right ascension
Unknown
Apparent Declination
Unknown
Sunlit
N/A
Visualization observer readout
Local Sidereal Time
06:17:20
Azimuth
Unknown
Elevation
Unknown
Doppler factor
Unknown
Orbital elements
Apogee altitude
476.149 km
Perigee altitude
474.701 km
Semi-major axis
6,853.562 km
Eccentricity
0.00011
Inclination
53.1626°
RAAN
320.3191°
Arg. of periapsis
267.5973°
True anomaly
92.50279°
Mean anomaly
92.4907°
Eccentric anomaly
92.49674°
Mean motion
3.82533 °/min
Orbital period
94.11 mins
BSTAR
0.000098436
Loading maneuver chart data...
Computing Atmospheric mass density...
Loading historical data...
Loading historical data...
Loading historical data...
Loading historical data...
Loading historical data...
Loading historical data...
Loading historical data...

Documentation

Showing up to 5 results
|